Weather History for KELZ - April, 2013

Change the Weather History Date:

Tuesday, April 2, 2013

  Actual Average (KBFD) Record (KBFD)
Temperature  
Mean Temperature 23 °F 38 °F  
Max Temperature 30 °F 49 °F 82 °F (2010)
Min Temperature 16 °F 28 °F 18 °F (1962)
Degree Days  
Heating Degree Days 42 21  
Month to date heating degree days 43  
Since 1 July heating degree days 6650  
Moisture  
Dew Point 13 °F    
Average Humidity 73    
Maximum Humidity 86    
Minimum Humidity 45    
Precipitation  
Precipitation 0.03 in 0.13 in 1.24 in (1970)
Month to date precipitation 0.25  
Year to date precipitation 9.26  
Sea Level Pressure  
Sea Level Pressure 29.97 in    
Wind  
Wind Speed 12 mph (WNW)    
Max Wind Speed 25 mph    
Max Gust Speed 33 mph    
Visibility 6 miles    
Events Fog , Snow    
T = Trace of Precipitation, MM = Missing Value Source: NWS Daily Summary

Daily Weather History Graph

Daily Weather History Graph

Search for Another Location

Airport or City:

Trip Planner

Search our weather history database for the weather conditions in past years. The results will help you decide how hot, cold, wet, or windy it might be!

Date:

Astronomy

Apr. 02, 2013 Rise Set
Actual Time 6:52 AM EDT 7:39 PM EDT
Civil Twilight 6:24 AM EDT 8:07 PM EDT
Nautical Twilight 5:50 AM EDT 8:40 PM EDT
Astronomical Twilight 5:15 AM EDT 9:15 PM EDT
Moon 1:46 AM EDT (4/2) 11:37 AM EDT (4/2)
Length of Visible Light 13h 43m
Length of Day
12h 46m
Waning Gibbous, 56% of the Moon is Illuminated
Apr 2
Waning Gibbous
Apr 3
Last Quarter
Apr 10
New
Apr 18
First Quarter
Apr 25
Full

Hourly Weather History & Observations

Time (EDT) Temp. Windchill Dew Point Humidity Pressure Visibility Wind Dir Wind Speed Gust Speed Precip Events Conditions
12:14 AM 21.2 °F 10.9 °F 17.6 °F 86% 29.88 in 8.0 mi WNW 9.2 mph - 0.00 in Snow Light Snow
12:56 AM 21.9 °F 9.8 °F 15.1 °F 75% 29.96 in 4.0 mi NW 12.7 mph 27.6 mph 0.00 in Snow Light Snow
1:09 AM 21.2 °F 8.9 °F 15.8 °F 80% 29.89 in 9.0 mi NW 12.7 mph - 0.00 in Snow Light Snow
1:56 AM 21.0 °F 8.6 °F 15.1 °F 78% 29.98 in 8.0 mi WNW 12.7 mph - 0.00 in Snow Light Snow
2:02 AM 21.2 °F 10.9 °F 15.8 °F 80% 29.89 in 2.5 mi WNW 9.2 mph - 0.00 in Snow Light Snow
2:05 AM 21.2 °F 9.5 °F 15.8 °F 80% 29.89 in 1.8 mi NW 11.5 mph - 0.00 in Snow Light Snow
2:12 AM 19.4 °F 7.9 °F 15.8 °F 86% 29.89 in 3.0 mi WNW 10.4 mph - 0.00 in Snow Light Snow
2:30 AM 19.4 °F 7.9 °F 14.0 °F 80% 29.89 in 10.0 mi WNW 10.4 mph - 0.00 in   Scattered Clouds
2:44 AM 21.2 °F 10.1 °F 15.8 °F 80% 29.89 in 10.0 mi WNW 10.4 mph - 0.00 in   Mostly Cloudy
2:56 AM 19.9 °F 7.9 °F 15.1 °F 81% 29.97 in 1.5 mi WNW 11.5 mph - 0.00 in Snow Light Snow
3:04 AM 19.4 °F 8.6 °F 15.8 °F 86% 29.89 in 1.0 mi WNW 9.2 mph - 0.01 in Snow Light Snow
3:11 AM 19.4 °F 9.5 °F 15.8 °F 86% 29.89 in 4.0 mi WNW 8.1 mph - 0.01 in Snow Light Snow
3:20 AM 19.4 °F 10.4 °F 15.8 °F 86% 29.89 in 9.0 mi WNW 6.9 mph - 0.01 in   Overcast
3:36 AM 19.4 °F 8.6 °F 15.8 °F 86% 29.89 in 1.5 mi NW 9.2 mph - 0.01 in Snow Light Snow
3:39 AM 19.4 °F 6.6 °F 15.8 °F 86% 29.89 in 0.8 mi NNW 12.7 mph 19.6 mph 0.01 in Snow Light Snow
3:44 AM 19.4 °F 7.9 °F 15.8 °F 86% 29.89 in 0.5 mi NW 10.4 mph 19.6 mph 0.01 in Snow Snow
3:56 AM 19.0 °F 7.5 °F 15.1 °F 85% 29.98 in 0.5 mi WNW 10.4 mph 19.6 mph 0.02 in Fog , Snow Snow
4:06 AM 19.4 °F 6.0 °F 14.0 °F 80% 29.89 in 2.5 mi NW 13.8 mph 21.9 mph 0.00 in Snow Light Snow
4:12 AM 19.4 °F 5.0 °F 12.2 °F 74% 29.89 in 9.0 mi NW 16.1 mph 23.0 mph 0.00 in Snow Light Snow
4:24 AM 19.4 °F 6.6 °F 12.2 °F 74% 29.89 in 10.0 mi NW 12.7 mph - 0.00 in   Mostly Cloudy
4:56 AM 18.0 °F 6.9 °F 12.0 °F 78% 29.98 in 10.0 mi WNW 9.2 mph - 0.00 in   Mostly Cloudy
5:07 AM 17.6 °F 5.0 °F 10.4 °F 73% 29.89 in 10.0 mi WNW 11.5 mph - N/A   Mostly Cloudy
5:19 AM 17.6 °F 5.7 °F 10.4 °F 73% 29.89 in 10.0 mi WNW 10.4 mph - N/A   Mostly Cloudy
5:56 AM 16.0 °F 7.4 °F 10.0 °F 77% 30.00 in 10.0 mi WNW 5.8 mph - N/A   Mostly Cloudy
6:18 AM 17.6 °F 7.3 °F 10.4 °F 73% 29.90 in 10.0 mi West 8.1 mph - N/A   Mostly Cloudy
6:39 AM 17.6 °F 6.4 °F 12.2 °F 79% 29.90 in 2.5 mi West 9.2 mph - 0.00 in Snow Light Snow
6:48 AM 17.6 °F 8.2 °F 12.2 °F 79% 29.91 in 1.8 mi West 6.9 mph - 0.00 in Snow Light Snow
6:52 AM 17.6 °F 8.2 °F 12.2 °F 79% 29.91 in 3.0 mi West 6.9 mph - 0.00 in Snow Light Snow
6:56 AM 18.0 °F 9.8 °F 12.9 °F 81% 30.01 in 5.0 mi West 5.8 mph - 0.00 in Snow Light Snow
7:09 AM 17.6 °F 5.0 °F 14.0 °F 86% 29.92 in 1.8 mi West 11.5 mph - 0.00 in Snow Light Snow
7:19 AM 19.4 °F 7.9 °F 14.0 °F 80% 29.92 in 0.5 mi WNW 10.4 mph - 0.00 in Snow Snow
7:30 AM 17.6 °F 7.3 °F 14.0 °F 86% 29.92 in 1.0 mi WNW 8.1 mph - 0.00 in Snow Light Snow
7:36 AM 19.4 °F 7.2 °F 14.0 °F 80% 29.93 in 3.0 mi WNW 11.5 mph - 0.00 in Snow Light Snow
7:49 AM 19.4 °F 6.6 °F 12.2 °F 74% 29.93 in 1.8 mi WNW 12.7 mph 19.6 mph 0.00 in Snow Light Snow
7:56 AM 19.0 °F 4.5 °F 12.9 °F 77% 30.03 in 2.5 mi WNW 16.1 mph 21.9 mph 0.00 in Snow Light Snow
8:03 AM 19.4 °F 8.6 °F 12.2 °F 74% 29.94 in 6.0 mi West 9.2 mph 20.7 mph 0.00 in Snow Light Snow
8:56 AM 19.9 °F 5.7 °F 12.0 °F 71% 30.05 in 9.0 mi West 16.1 mph 19.6 mph 0.01 in   Overcast
9:27 AM 21.2 °F 5.2 °F 10.4 °F 63% 29.95 in 7.0 mi WNW 21.9 mph 33.4 mph N/A   Mostly Cloudy
9:56 AM 21.9 °F 8.2 °F 10.9 °F 63% 30.06 in 7.0 mi WNW 16.1 mph 24.2 mph 0.00 in Snow Light Snow
10:56 AM 25.0 °F 10.2 °F 10.9 °F 55% 30.05 in 10.0 mi WNW 21.9 mph 28.8 mph 0.00 in   Overcast
11:56 AM 25.0 °F 10.6 °F 12.0 °F 58% 30.06 in 10.0 mi WNW 20.7 mph 27.6 mph 0.00 in   Overcast
12:56 PM 26.1 °F 13.1 °F 12.0 °F 55% 30.06 in 10.0 mi West 17.3 mph 29.9 mph N/A   Overcast
1:56 PM 28.0 °F 14.6 °F 14.0 °F 56% 30.05 in 10.0 mi WNW 20.7 mph 29.9 mph 0.00 in   Mostly Cloudy
2:56 PM 30.0 °F 16.0 °F 12.0 °F 47% 30.05 in 10.0 mi WNW 25.3 mph 33.4 mph 0.00 in   Mostly Cloudy
3:56 PM 30.0 °F 19.1 °F 10.9 °F 45% 30.04 in 10.0 mi WNW 15.0 mph 26.5 mph N/A   Mostly Cloudy
4:56 PM 28.0 °F 14.6 °F 10.0 °F 47% 30.07 in 10.0 mi WNW 20.7 mph - N/A   Clear
5:56 PM 28.0 °F 14.9 °F 9.0 °F 45% 30.09 in 10.0 mi WNW 19.6 mph 33.4 mph N/A   Overcast
6:56 PM 26.1 °F 12.7 °F 10.0 °F 51% 30.12 in 10.0 mi WNW 18.4 mph 33.4 mph N/A   Overcast
7:56 PM 25.0 °F 14.8 °F 12.9 °F 60% 30.13 in 9.0 mi West 10.4 mph 25.3 mph 0.00 in Snow Light Snow
8:56 PM 25.0 °F 13.6 °F 12.0 °F 58% 30.14 in 10.0 mi West 12.7 mph - 0.00 in   Overcast
9:56 PM 24.1 °F 13.7 °F 12.0 °F 60% 30.14 in 10.0 mi WNW 10.4 mph - N/A   Mostly Cloudy
10:49 PM 24.8 °F 14.6 °F 15.8 °F 69% 30.05 in 2.5 mi NW 10.4 mph 19.6 mph 0.00 in Snow Light Snow
10:56 PM 23.0 °F 11.7 °F 18.0 °F 81% 30.15 in 1.2 mi NW 11.5 mph - 0.00 in Snow Light Snow
11:18 PM 23.0 °F 11.7 °F 19.4 °F 86% 30.05 in 3.0 mi WNW 11.5 mph - 0.00 in Snow Light Snow
11:56 PM 21.9 °F 13.4 °F 17.1 °F 82% 30.14 in 10.0 mi West 6.9 mph - 0.00 in   Partly Cloudy